Hourly Data Report for March 19, 2017

All times are specified in Local Standard Time (LST). Add 1 hour to adjust for Daylight Saving Time where and when it is observed.

KELOWNA UBCO
BRITISH COLUMBIA

49°56'26.700" N
119°24'00.760" W
456.00 m
1123996
71644
VKU

Download Data

Hourly Data (March 2017)
Hourly Data Report for March 19, 2017
Temp Definition
°C
Dew Point Temp Definition
°C
Rel Hum Definition
%
Wind Dir Definition
10's deg

Wind Spd Definition
km/h
Visibility Definition
km
Stn Press Definition
kPa
Hmdx Definition


Wind Chill Definition


Weather Definition


TIME
00:00 2.0 -8.2 47       96.38     LegendNANA
01:00 1.5 -7.7 50       96.44     LegendNANA
02:00 1.2 -7.5 52       96.52     LegendNANA
03:00 -0.8 -7.2 62       96.58     LegendNANA
04:00 0.5 -7.3 56       96.66     LegendNANA
05:00 0.3 -7.6 55       96.73     LegendNANA
06:00 -0.4 -7.5 59       96.81     LegendNANA
07:00 -0.1 -7.6 57       96.87     LegendNANA
08:00 2.4 -6.7 51       96.95     LegendNANA
09:00 4.3 -9.1 37       97.00     LegendNANA
10:00 5.0 -9.3 35       97.03     LegendNANA
11:00 6.0 -9.1 33       97.03     LegendNANA
12:00 7.1 -8.8 31       96.99     LegendNANA
13:00 8.1 -8.6 29       96.97     LegendNANA
14:00 8.2 -12.0 22       96.92     LegendNANA
15:00 9.1 -11.8 21       96.88     LegendNANA
16:00 8.9 -13.3 19       96.85     LegendNANA
17:00 8.9 -13.2 19       96.83     LegendNANA
18:00 7.1 -12.3 24       96.85     LegendNANA
19:00 4.0 -9.1 38       96.91     LegendNANA
20:00 3.0 -10.0 38       96.97     LegendNANA
21:00 -0.9 -7.4 61       97.03     LegendNANA
22:00 -1.6 -8.2 61       97.07     LegendNANA
23:00 -2.3 -8.1 65       97.12     LegendNANA

Notes on Data Quality.

Legend

  • E = Estimated
  • M = Missing
  • NA = Not Available
  • ‡ = Partner data that is not subject to review by the National Climate Archives
Date modified: